GW0235 Weather Reports


time (UTC)temp
C
wind
direction
speed
KPH
gust
KPH
rain 1hr
cm
rain 24hr
cm
rain mn
cm
humidity
%
barometer
mb
20260505195059 22 5 8.0 19.3 0.00 0.00 0.00 46 1013.2
20260505194604 21 326 9.7 19.3 0.00 0.00 0.00 45 1013.3
20260505194100 21 313 9.7 19.3 0.00 0.00 0.00 46 1013.2
20260505193600 21 352 6.4 19.3 0.00 0.00 0.00 47 1013.3
20260505193103 21 34 6.4 12.9 0.00 0.00 0.00 46 1013.3
20260505192559 21 51 1.6 14.5 0.00 0.00 0.00 49 1013.2
20260505192100 21 24 4.8 14.5 0.00 0.00 0.00 48 1013.3
20260505191600 21 337 6.4 14.5 0.00 0.00 0.00 53 1013.3
20260505191059 21 350 3.2 12.9 0.00 0.00 0.00 50 1013.2
20260505190559 21 328 6.4 16.1 0.00 0.00 0.00 49 1013.2
20260505190059 20 273 3.2 16.1 0.00 0.00 0.00 49 1013.3
20260505185600 20 317 8.0 17.7 0.00 0.00 0.00 49 1013.3
20260505185100 21 352 6.4 17.7 0.00 0.00 0.00 48 1013.2
20260505184600 21 9 6.4 17.7 0.00 0.00 0.00 50 1013.2
20260505184102 21 323 4.8 14.5 0.00 0.00 0.00 47 1013.1
20260505183559 21 352 3.2 14.5 0.00 0.00 0.00 49 1013.1
20260505183059 21 335 4.8 14.5 0.00 0.00 0.00 49 1013.0
20260505182559 20 349 6.4 14.5 0.00 0.00 0.00 48 1013.0
20260505182100 20 352 8.0 14.5 0.00 0.00 0.00 49 1013.0
20260505181614 20 348 6.4 16.1 0.00 0.00 0.00 50 1013.0
20260505181100 20 335 6.4 16.1 0.00 0.00 0.00 51 1013.0
20260505180600 20 17 4.8 16.1 0.00 0.00 0.00 51 1012.9
20260505180100 20 41 3.2 12.9 0.00 0.00 0.00 52 1012.9
20260505175559 20 296 4.8 12.9 0.00 0.00 0.00 52 1012.9
20260505175059 20 332 6.4 16.1 0.00 0.00 0.00 53 1012.8
20260505174600 20 288 3.2 16.1 0.00 0.00 0.00 53 1012.8
20260505174100 19 285 4.8 12.9 0.00 0.00 0.00 56 1012.7
20260505173559 19 327 4.8 12.9 0.00 0.00 0.00 54 1012.8
20260505173100 19 308 3.2 9.7 0.00 0.00 0.00 56 1012.9
20260505172602 19 339 1.6 12.9 0.00 0.00 0.00 58 1012.8
20260505172059 18 329 3.2 12.9 0.00 0.00 0.00 55 1012.8
20260505171558 18 299 4.8 17.7 0.00 0.00 0.00 56 1012.7
20260505171059 18 306 3.2 17.7 0.00 0.00 0.00 55 1012.7
20260505170600 18 317 6.4 17.7 0.00 0.00 0.00 56 1012.7
20260505170105 18 298 6.4 12.9 0.00 0.00 0.00 58 1012.7
20260505165600 18 319 4.8 12.9 0.00 0.00 0.00 59 1012.7
20260505165059 18 290 3.2 16.1 0.00 0.00 0.00 58 1012.7
20260505164602 18 300 4.8 16.1 0.00 0.00 0.00 59 1012.7
20260505164059 18 312 4.8 16.1 0.00 0.00 0.00 59 1012.7
20260505163600 17 281 6.4 16.1 0.00 0.00 0.00 58 1012.8
20260505163057 17 319 9.7 16.1 0.00 0.00 0.00 60 1012.7
20260505162558 17 309 6.4 14.5 0.00 0.00 0.00 59 1012.6
20260505162059 17 298 6.4 14.5 0.00 0.00 0.00 60 1012.6
20260505161559 17 287 8.0 14.5 0.00 0.00 0.00 60 1012.6
20260505161100 17 273 8.0 16.1 0.00 0.00 0.00 61 1012.5
20260505160600 17 299 4.8 16.1 0.00 0.00 0.00 60 1012.6
20260505153111 16 244 4.8 11.3 0.00 0.00 0.00 63 1012.4
20260505152559 16 243 3.2 9.7 0.00 0.00 0.00 66 1012.4
20260505152059 16 214 4.8 8.0 0.00 0.00 0.00 68 1012.3
20260505151600 15 198 3.2 9.7 0.00 0.00 0.00 67 1012.4
20260505151059 15 205 4.8 9.7 0.00 0.00 0.00 69 1012.3
20260505150600 15 175 4.8 11.3 0.00 0.00 0.00 69 1012.3
20260505140559 11 159 1.6 8.0 0.00 0.00 0.00 77 1011.7
20260505140108 11 159 1.6 6.4 0.00 0.00 0.00 78 1011.6
20260505130110 10 0 0.0 1.6 0.00 0.00 0.00 77 1011.1
20260505124618 10 0 1.6 3.2 0.00 0.00 0.00 76 1010.8
20260505124058 10 157 0.0 3.2 0.00 0.00 0.00 77 1010.8
20260505123600 10 0 0.0 3.2 0.00 0.00 0.00 77 1010.8
20260505123118 10 157 0.0 1.6 0.00 0.00 0.00 77 1010.9
20260505122601 10 0 0.0 1.6 0.00 0.00 0.00 78 1010.8
20260505122058 10 0 0.0 1.6 0.00 0.00 0.00 77 1010.9
20260505121600 10 0 0.0 1.6 0.00 0.00 0.00 78 1010.8
20260505121058 10 157 0.0 0.0 0.00 0.00 0.00 78 1010.9
20260505120557 10 0 0.0 0.0 0.00 0.00 0.00 77 1010.8
20260505120107 10 0 0.0 0.0 0.00 0.00 0.00 76 1010.8
20260505115557 10 0 0.0 0.0 0.00 0.00 0.00 76 1010.8
20260505115057 10 0 0.0 0.0 0.00 0.00 0.00 76 1010.7
20260505114559 11 0 0.0 0.0 0.00 0.00 0.00 76 1010.7
20260505114058 11 0 0.0 0.0 0.00 0.00 0.00 76 1010.7
20260505113558 11 0 0.0 0.0 0.00 0.00 0.00 76 1010.7
20260505113114 11 0 0.0 1.6 0.00 0.00 0.00 75 1010.7
20260505112602 11 0 0.0 1.6 0.00 0.00 0.00 75 1010.8
20260505112059 11 0 0.0 1.6 0.00 0.00 0.00 75 1010.8
20260505111601 11 0 0.0 1.6 0.00 0.00 0.00 75 1010.7
20260505111100 11 0 0.0 0.0 0.00 0.00 0.00 75 1010.7
20260505110559 11 0 0.0 3.2 0.00 0.00 0.00 74 1010.7
20260505102057 11 157 0.0 4.8 0.00 0.00 0.00 73 1010.2
20260505101558 11 157 0.0 8.0 0.00 0.00 0.00 73 1010.2
20260505101058 11 0 1.6 8.0 0.00 0.00 0.00 73 1010.2
20260505100558 11 157 1.6 4.8 0.00 0.00 0.00 74 1010.2
20260505095557 11 157 1.6 4.8 0.00 0.00 0.00 74 1010.1
20260505095057 11 157 1.6 4.8 0.00 0.00 0.00 74 1010.1
20260505094600 12 0 0.0 4.8 0.00 0.00 0.00 74 1010.2
20260505094057 12 157 1.6 4.8 0.00 0.00 0.00 74 1010.2
20260505093557 12 0 1.6 4.8 0.00 0.00 0.00 74 1010.2
20260505093105 12 157 0.0 4.8 0.00 0.00 0.00 74 1010.2
20260505092557 12 0 0.0 8.0 0.00 0.00 0.00 74 1010.1
20260505092059 12 157 1.6 8.0 0.00 0.00 0.00 74 1010.1
20260505091558 12 237 0.0 6.4 0.00 0.00 0.00 74 1010.1
20260505091057 12 237 1.6 6.4 0.00 0.00 0.00 74 1010.2
20260505090557 12 237 3.2 6.4 0.00 0.00 0.00 75 1010.1
20260505090057 11 236 1.6 6.4 0.00 0.00 0.00 75 1010.1
20260505085558 12 236 3.2 6.4 0.00 0.00 0.00 75 1010.1
20260505085058 12 243 3.2 6.4 0.00 0.00 0.00 75 1010.2
20260505084558 12 234 1.6 6.4 0.00 0.00 0.00 74 1010.1
20260505084057 12 241 1.6 6.4 0.00 0.00 0.00 74 1010.1
20260505083557 12 242 0.0 4.8 0.00 0.00 0.00 74 1010.2
20260505083105 12 241 1.6 8.0 0.00 0.00 0.00 74 1010.2
20260505082557 12 275 3.2 8.0 0.00 0.00 0.00 73 1010.3
20260505082058 12 244 4.8 8.0 0.00 0.00 0.00 73 1010.2
20260505081600 12 247 1.6 4.8 0.00 0.00 0.00 71 1010.2
20260505081100 13 202 1.6 8.0 0.00 0.00 0.00 70 1010.3
20260505080602 13 0 1.6 8.0 0.00 0.00 0.00 70 1010.3
20260505080113 13 205 1.6 9.7 0.00 0.00 0.00 70 1010.3
20260505075556 13 281 1.6 9.7 0.00 0.00 0.00 69 1010.3
20260505075102 13 268 4.8 9.7 0.00 0.00 0.00 70 1010.3
20260505074603 13 284 3.2 6.4 0.00 0.00 0.00 68 1010.3
20260505074100 14 160 0.0 6.4 0.00 0.00 0.00 68 1010.3
20260505073602 14 160 1.6 9.7 0.00 0.00 0.00 67 1010.3
20260505073110 14 160 4.8 9.7 0.00 0.00 0.00 66 1010.2
20260505072600 15 170 3.2 9.7 0.00 0.00 0.00 66 1010.3
20260505072100 15 0 4.8 12.9 0.00 0.00 0.00 66 1010.1
20260505071603 15 252 4.8 17.7 0.00 0.00 0.00 66 1009.9
20260505071100 15 251 4.8 19.3 0.00 0.00 0.00 66 1009.9
20260505070600 15 220 4.8 19.3 0.00 0.00 0.00 66 1009.8
20260505070111 15 234 3.2 9.7 0.00 0.00 0.00 66 1009.8
20260505065601 15 219 3.2 11.3 0.00 0.00 0.00 66 1009.8
20260505065100 14 189 4.8 11.3 0.00 0.00 0.00 67 1009.8
20260505064603 14 190 3.2 9.7 0.00 0.00 0.00 66 1009.9
20260505064059 15 173 3.2 11.3 0.00 0.00 0.00 66 1009.7
20260505063558 15 175 3.2 11.3 0.00 0.00 0.00 65 1009.7
20260505063102 15 180 4.8 8.0 0.00 0.00 0.00 65 1009.6
20260505062600 15 150 1.6 14.5 0.00 0.00 0.00 65 1009.6
20260505062057 15 303 3.2 17.7 0.00 0.00 0.00 65 1009.5
20260505061601 15 275 6.4 20.9 0.00 0.00 0.00 65 1009.4
20260505061058 15 311 11.3 20.9 0.00 0.00 0.00 64 1009.4
20260505060600 15 294 11.3 20.9 0.00 0.00 0.00 64 1009.2
20260505060059 15 306 11.3 22.5 0.00 0.00 0.00 64 1009.2
20260505055605 15 291 14.5 22.5 0.00 0.00 0.00 64 1009.2
20260505055103 15 297 12.9 20.9 0.00 0.00 0.00 64 1009.2
20260505054557 15 309 12.9 22.5 0.00 0.00 0.00 63 1009.1
20260505054100 15 284 12.9 22.5 0.00 0.00 0.00 63 1009.2
20260505053559 15 317 14.5 22.5 0.00 0.00 0.00 64 1009.2
20260505053116 15 296 12.9 25.7 0.00 0.00 0.00 64 1009.1
20260505052559 15 274 12.9 25.7 0.00 0.00 0.00 63 1009.1
20260505052059 16 295 12.9 20.9 0.00 0.00 0.00 62 1009.1
20260505051557 16 319 11.3 20.9 0.00 0.00 0.00 61 1009.1
20260505051100 16 294 11.3 19.3 0.00 0.00 0.00 61 1009.1
20260505050609 16 305 8.0 16.1 0.00 0.00 0.00 61 1009.0
20260505050113 16 303 9.7 16.1 0.00 0.00 0.00 61 1009.1
20260505041558 17 318 6.4 14.5 0.00 0.00 0.00 55 1009.0
20260505041056 17 319 8.0 16.1 0.00 0.00 0.00 55 1008.9
20260505040558 17 304 8.0 16.1 0.00 0.00 0.00 54 1008.9
20260505040101 17 319 8.0 14.5 0.00 0.00 0.00 53 1008.8
20260505035600 17 293 9.7 17.7 0.00 0.00 0.00 53 1008.8
20260505035056 17 317 8.0 17.7 0.00 0.00 0.00 53 1008.8
20260505034617 17 317 6.4 14.5 0.00 0.00 0.00 53 1008.7
20260505034058 17 315 8.0 17.7 0.00 0.00 0.00 53 1008.7
20260505033558 17 337 8.0 17.7 0.00 0.00 0.00 53 1008.7
20260505033057 17 327 6.4 14.5 0.00 0.00 0.00 53 1008.6
20260505032558 18 319 6.4 12.9 0.00 0.00 0.00 52 1008.6
20260505032101 18 319 6.4 12.9 0.00 0.00 0.00 52 1008.4
20260505031600 18 321 6.4 14.5 0.00 0.00 0.00 52 1008.4
20260505031059 18 319 8.0 14.5 0.00 0.00 0.00 51 1008.6
20260505030601 18 314 8.0 16.1 0.00 0.00 0.00 51 1008.5
20260505030103 18 299 9.7 19.3 0.00 0.00 0.00 50 1008.5
20260505025600 19 317 8.0 19.3 0.00 0.00 0.00 49 1008.3
20260505025058 19 295 6.4 14.5 0.00 0.00 0.00 49 1008.3
20260505024558 20 311 6.4 14.5 0.00 0.00 0.00 48 1008.4
20260505024058 20 327 4.8 14.5 0.00 0.00 0.00 46 1008.3
20260505023559 21 309 6.4 19.3 0.00 0.00 0.00 44 1008.3
20260505023103 21 300 9.7 19.3 0.00 0.00 0.00 42 1008.3
20260505022558 21 321 12.9 19.3 0.00 0.00 0.00 40 1008.4
20260505022058 22 296 8.0 17.7 0.00 0.00 0.00 40 1008.3
20260505021604 22 310 9.7 19.3 0.00 0.00 0.00 39 1008.3
20260505021057 22 315 9.7 19.3 0.00 0.00 0.00 38 1008.3
20260505020558 22 322 12.9 19.3 0.00 0.00 0.00 37 1008.3
20260505015558 23 337 4.8 12.9 0.00 0.00 0.00 29 1008.3
20260505015059 23 352 4.8 14.5 0.00 0.00 0.00 30 1008.3
20260505014600 23 348 4.8 14.5 0.00 0.00 0.00 30 1008.3
20260505014058 23 9 8.0 14.5 0.00 0.00 0.00 30 1008.3
20260505013601 23 352 8.0 14.5 0.00 0.00 0.00 30 1008.4
20260505013102 24 14 6.4 11.3 0.00 0.00 0.00 30 1008.4
20260505012558 24 17 4.8 14.5 0.00 0.00 0.00 27 1008.3
20260505012100 24 15 4.8 14.5 0.00 0.00 0.00 27 1008.4
20260505011612 24 350 8.0 14.5 0.00 0.00 0.00 27 1008.5
20260505011101 24 28 6.4 17.7 0.00 0.00 0.00 26 1008.5
20260505010558 24 340 8.0 17.7 0.00 0.00 0.00 26 1008.5
20260505005600 24 326 4.8 14.5 0.00 0.00 0.00 25 1008.5
20260505005059 25 352 6.4 14.5 0.00 0.00 0.00 25 1008.5
20260505004610 25 332 8.0 14.5 0.00 0.00 0.00 25 1008.5
20260505004057 25 320 6.4 17.7 0.00 0.00 0.00 27 1008.6
20260505003558 25 5 8.0 17.7 0.00 0.00 0.00 26 1008.6
20260505003058 25 331 3.2 12.9 0.00 0.00 0.00 25 1008.6
20260505002557 25 350 4.8 16.1 0.00 0.00 0.00 26 1008.6
20260505002100 25 360 8.0 16.1 0.00 0.00 0.00 26 1008.6
20260505001629 25 334 8.0 16.1 0.00 0.00 0.00 27 1008.7
20260505001101 25 19 4.8 16.1 0.00 0.00 0.00 26 1008.7
20260505000600 25 350 6.4 14.5 0.00 0.00 0.00 26 1008.8
20260505000110 25 342 8.0 19.3 0.00 0.00 0.00 27 1008.8
20260504235602 25 350 8.0 19.3 0.00 0.00 0.00 27 1008.8
20260504235058 25 327 9.7 17.7 0.00 0.00 0.00 27 1008.9
20260504234603 25 24 4.8 16.1 0.00 0.00 0.00 29 1008.8
20260504234101 25 5 6.4 16.1 0.00 0.00 0.00 28 1008.8
20260504233602 25 12 8.0 19.3 0.00 0.00 0.00 28 1008.8
20260504233113 25 333 8.0 19.3 0.00 0.00 0.00 28 1008.8
20260504232559 25 332 8.0 19.3 0.00 0.00 0.00 28 1008.9
20260504232059 25 68 6.4 17.7 0.00 0.00 0.00 27 1009.0
20260504231605 25 32 9.7 17.7 0.00 0.00 0.00 28 1009.0
20260504231100 25 15 4.8 17.7 0.00 0.00 0.00 31 1009.0
20260504230600 25 76 6.4 17.7 0.00 0.00 0.00 26 1009.0
20260504230104 25 46 11.3 17.7 0.00 0.00 0.00 29 1009.1
20260504225601 25 41 8.0 17.7 0.00 0.00 0.00 31 1009.0
20260504225059 25 342 4.8 14.5 0.00 0.00 0.00 28 1009.1
20260504224600 25 300 8.0 14.5 0.00 0.00 0.00 29 1009.2
20260504224100 25 348 4.8 14.5 0.00 0.00 0.00 28 1009.2
20260504223600 25 41 6.4 19.3 0.00 0.00 0.00 29 1009.3
20260504223101 25 336 6.4 19.3 0.00 0.00 0.00 30 1009.4
20260504222558 25 317 9.7 19.3 0.00 0.00 0.00 28 1009.5
20260504222100 25 313 6.4 16.1 0.00 0.00 0.00 28 1009.4
20260504221558 25 328 4.8 12.9 0.00 0.00 0.00 28 1009.5
20260504221058 25 329 6.4 17.7 0.00 0.00 0.00 28 1009.5
20260504220600 25 340 6.4 17.7 0.00 0.00 0.00 32 1009.5
20260504220100 24 315 4.8 16.1 0.00 0.00 0.00 29 1009.5
20260504215558 24 320 9.7 17.7 0.00 0.00 0.00 29 1009.5
20260504215059 24 35 8.0 19.3 0.00 0.00 0.00 32 1009.6
20260504214607 24 24 9.7 19.3 0.00 0.00 0.00 33 1009.6
20260504214100 24 352 8.0 16.1 0.00 0.00 0.00 31 1009.7
20260504213601 24 349 4.8 19.3 0.00 0.00 0.00 31 1009.7
20260504213101 24 56 11.3 19.3 0.00 0.00 0.00 29 1009.8
20260504212600 24 351 6.4 20.9 0.00 0.00 0.00 32 1009.8
20260504212100 24 324 6.4 20.9 0.00 0.00 0.00 30 1009.8
20260504211600 24 341 11.3 20.9 0.00 0.00 0.00 30 1009.8
20260504211058 24 351 8.0 17.7 0.00 0.00 0.00 32 1009.8
20260504210600 24 346 9.7 17.7 0.00 0.00 0.00 34 1009.8
20260504210100 24 10 6.4 16.1 0.00 0.00 0.00 34 1009.8
20260504205557 23 314 4.8 16.1 0.00 0.00 0.00 38 1009.9
20260504205058 23 341 8.0 17.7 0.00 0.00 0.00 35 1010.0
20260504204611 23 43 8.0 17.7 0.00 0.00 0.00 35 1010.0
20260504204101 23 333 8.0 17.7 0.00 0.00 0.00 34 1010.0
20260504203557 23 318 6.4 20.9 0.00 0.00 0.00 36 1010.1
20260504203105 23 42 6.4 20.9 0.00 0.00 0.00 36 1010.1
20260504202601 23 338 4.8 20.9 0.00 0.00 0.00 37 1010.1
20260504202103 23 352 8.0 16.1 0.00 0.00 0.00 35 1010.2
20260504201558 23 352 4.8 16.1 0.00 0.00 0.00 40 1010.2
20260504201100 23 352 6.4 16.1 0.00 0.00 0.00 37 1010.2
20260504200557 23 19 4.8 16.1 0.00 0.00 0.00 38 1010.2
20260504200104 23 38 8.0 16.1 0.00 0.00 0.00 37 1010.2
20260504195651 23 339 6.4 16.1 0.00 0.00 0.00 37 1010.2